Погода в Урухе

Россия / Кабардино-Балкарская Республика     43°17′34″N   44°01′38″E
темп.,
°C
ветер,
м/с
пор.,
м/с
влажн.,
%
обл.,
%
осадки,
мм/ч
давл.,
гПа
погр.,
м
6 мая, чт
чт600:00+6ююз228355 0.0 101817
03:00+6юз11740 0.0 101813
06:00+7юз11670 0.0 101739
09:00+13св22640 0.0 1015653
12:00+16св325419 0.0 10141165
15:00+18всв32535 0.0 10121269
18:00+16св246983 0.0 1013176
21:00+10ю1180100 0.0 101512
7 мая, пт
пт700:00+9з1178100 0.0 101510
03:00+9сз1182100 0.0 101510
06:00+10сз1181100 0.0 101731
09:00+15ссв2266100 0.0 1017389
12:00+18ссв44515 0.0 1017961
15:00+19ссв33474 0.0 10171190
18:00+17св22655 0.0 101750
21:00+12юз117619 0.0 101911
8 мая, сб
сб800:00+11юз22784 0.0 101919
03:00+10юз22770 0.0 101817
06:00+12ююз11731 0.0 101822
09:00+17в22574 0.0 1016591
12:00+21всв335158 0.0 10141246
15:00+21всв3350100 0.0 10131347
18:00+19всв2272100 0.0 101259
21:00+14ю118496 0.0 101211
9 мая, вс
вс900:00+13з218511 0.0 101111
03:00+11ююз22780 0.0 101012
06:00+13юз116791 0.0 100915
09:00+18с2358100 0.0 1008392
12:00+18ссв446591 0.1 10111101
15:00+10ссз91391100 2.4 1016777
18:00+6с51091100 4.1 10231017
21:00+5ююв2496100 6.4 1026844
10 мая, пн
пн1000:00+5ююз3394100 1.9 1026375
03:00+5ююз3491100 2.6 1026267
06:00+5ююз338793 0.2 1026197
09:00+9в125883 0.3 10241403
12:00+12вюв324863 0.0 10221849
15:00+13юв334536 0.0 10201764
18:00+10с457266 0.1 1020417
21:00+6сз1289100 0.2 1022260